Location: Hurecourt
(47.9030°N, 6.0653°E)
Time: 21:03:55
(UTC+00:00)

CBERS-1 - Pass Details

Date: 14 July 2020
Orbit: 769 x 777 km, 98.6° (Epoch: 14 August)

Event Time Altitude Azimuth Distance (km) Brightness Sun altitude
Rises 02:31:11 0° 10° (N) 3,270 8.4 -10.8°
Reaches altitude 10° 02:33:33 10° 5° (N) 2,338 7.4 -10.5°
Maximum altitude 02:38:31 50° 291° (WNW) 981 4.4 -10.0°
Enters shadow 02:43:04 12° 218° (SW) 2,176 5.7 -9.5°
